Location: Devargunta
(16.7631°N, 80.9077°E)
Time: 11:06:56
(UTC+00:00)

IRIDIUM 114 - Pass Details

Date: 19 January 2021
Orbit: 776 x 779 km, 86.4° (Epoch: 28 February)

Event Time Altitude Azimuth Distance (km) Brightness Sun altitude
Rises 23:22:50 0° 177° (S) 3,248 7.8 -25.0°
Reaches altitude 10° 23:25:10 10° 175° (S) 2,322 7.0 -24.5°
Maximum altitude 23:30:22 78° 89° (E) 797 4.4 -23.3°
Drops below altitude 10° 23:35:34 10° 4° (N) 2,327 6.7 -22.1°
Sets 23:37:55 0° 3° (N) 3,255 7.4 -21.6°
